Seminole, TX

5:57 AM CST on February 13, 2016 (GMT -0600)
Seminole

Weather History for KGNC - March, 2014

Change the Weather History Date:

Tuesday, March 11, 2014

  Actual Average (KHOB) Record (KHOB)
Temperature  
Mean Temperature 60 °F -  
Max Temperature 80 °F 64 °F 82 °F (2003)
Min Temperature 39 °F 37 °F 23 °F (1998)
Degree Days  
Heating Degree Days 6    
Growing Degree Days 10 (Base 50)    
Moisture  
Dew Point 22 °F    
Average Humidity 31    
Maximum Humidity 66    
Minimum Humidity 8    
Precipitation  
Precipitation 0.00 in - - ()
Sea Level Pressure  
Sea Level Pressure 29.79 in    
Wind  
Wind Speed 14 mph (WNW)    
Max Wind Speed 31 mph    
Max Gust Speed 46 mph    
Visibility 9 miles    
Events      
Averages and records for this station are not official NWS values.
T = Trace of Precipitation, MM = Missing Value Source: NWS Daily Summary

Daily Weather History Graph

Daily Weather History Graph

Search for Another Location

Airport or City:

Trip Planner

Search our weather history database for the weather conditions in past years. The results will help you decide how hot, cold, wet, or windy it might be!

Date:

Astronomy

Mar. 11, 2014 Rise Set
Actual Time 8:05 AM CDT 7:55 PM CDT
Civil Twilight 7:41 AM CDT 8:20 PM CDT
Nautical Twilight 7:12 AM CDT 8:48 PM CDT
Astronomical Twilight 6:44 AM CDT 9:17 PM CDT
Moon 3:45 PM CDT (3/11) 4:49 AM CDT (3/11)
Length of Visible Light 12h 38m
Length of Day
11h 49m
Waxing Gibbous, 78% of the Moon is Illuminated
Mar 11
Waxing Gibbous
Mar 16
Full
Mar 23
Last Quarter
Mar 30
New
Apr 7
First Quarter

Hourly Weather History & Observations

Time (CDT) Temp. Windchill Dew Point Humidity Pressure Visibility Wind Dir Wind Speed Gust Speed Precip Events Conditions
12:15 AM 52.9 °F - 37.6 °F 56% 29.85 in 10.0 mi South 11.5 mph - N/A   Clear
12:35 AM 52.2 °F - 39.2 °F 61% 29.85 in 10.0 mi SSW 9.2 mph - N/A   Clear
12:55 AM 51.3 °F - 39.4 °F 64% 29.84 in 10.0 mi SSW 10.4 mph - N/A   Clear
1:15 AM 50.2 °F - 39.2 °F 66% 29.82 in 10.0 mi SSW 9.2 mph - N/A   Clear
1:35 AM 50.0 °F - 38.3 °F 64% 29.81 in 10.0 mi SW 8.1 mph - N/A   Clear
1:55 AM 48.4 °F - 36.3 °F 63% 29.81 in 10.0 mi SW 8.1 mph - N/A   Clear
2:15 AM 46.8 °F - 33.6 °F 60% 29.81 in 10.0 mi WSW 8.1 mph - N/A   Clear
2:35 AM 45.1 °F 40.8 °F 31.6 °F 59% 29.80 in 10.0 mi WSW 8.1 mph - N/A   Clear
3:00 AM 43.2 °F 39.0 °F 28.6 °F 56% 29.79 in 10.0 mi WSW 6.9 mph - N/A   Clear
3:15 AM 42.3 °F 37.9 °F 27.3 °F 56% 29.79 in 10.0 mi SW 6.9 mph - N/A   Clear
3:35 AM 41.4 °F 36.2 °F 25.5 °F 53% 29.78 in 10.0 mi WSW 8.1 mph - N/A   Clear
3:55 AM 40.3 °F 36.3 °F 23.9 °F 52% 29.76 in 10.0 mi SW 5.8 mph - N/A   Clear
4:15 AM 39.2 °F 34.2 °F 23.9 °F 54% 29.76 in 10.0 mi WSW 6.9 mph - N/A   Clear
4:35 AM 40.1 °F 34.1 °F 22.6 °F 50% 29.75 in 10.0 mi SW 9.2 mph - N/A   Clear
4:55 AM 39.7 °F 34.3 °F 22.8 °F 51% 29.74 in 10.0 mi WSW 8.1 mph - N/A   Clear
5:15 AM 41.7 °F 35.6 °F 21.9 °F 45% 29.73 in 10.0 mi WSW 10.4 mph - N/A   Clear
5:35 AM 40.8 °F 35.6 °F 21.9 °F 47% 29.73 in 10.0 mi WSW 8.1 mph - N/A   Clear
5:55 AM 39.6 °F 33.5 °F 21.6 °F 49% 29.72 in 10.0 mi West 9.2 mph - N/A   Clear
6:15 AM 39.6 °F 34.0 °F 21.7 °F 49% 29.73 in 10.0 mi West 8.1 mph - N/A   Clear
6:35 AM 39.4 °F 33.2 °F 21.4 °F 49% 29.73 in 10.0 mi West 9.2 mph - N/A   Clear
6:55 AM 41.4 °F 34.7 °F 22.1 °F 46% 29.73 in 10.0 mi West 11.5 mph - N/A   Clear
7:15 AM 47.1 °F - 22.1 °F 37% 29.74 in 10.0 mi WNW 11.5 mph - N/A   Clear
7:35 AM 45.5 °F 40.8 °F 22.8 °F 41% 29.74 in 10.0 mi West 9.2 mph - N/A   Clear
7:55 AM 44.8 °F 39.9 °F 22.8 °F 42% 29.73 in 10.0 mi West 9.2 mph - N/A   Clear
8:15 AM 42.1 °F 37.1 °F 22.8 °F 46% 29.74 in 10.0 mi West 8.1 mph - N/A   Clear
8:35 AM 43.0 °F 38.2 °F 23.4 °F 46% 29.74 in 10.0 mi West 8.1 mph - N/A   Clear
8:55 AM 44.8 °F 39.9 °F 23.9 °F 44% 29.75 in 10.0 mi West 9.2 mph - N/A   Clear
9:15 AM 48.9 °F - 23.9 °F 38% 29.75 in 10.0 mi West 9.2 mph - N/A   Clear
9:35 AM 55.9 °F - 24.6 °F 30% 29.75 in 10.0 mi West 15.0 mph 18.4 mph N/A   Clear
9:55 AM 59.4 °F - 25.3 °F 27% 29.76 in 10.0 mi West 11.5 mph - N/A   Clear
10:15 AM 63.1 °F - 24.8 °F 23% 29.77 in 10.0 mi WNW 12.7 mph - N/A   Clear
10:35 AM 67.3 °F - 21.9 °F 18% 29.77 in 10.0 mi NW 19.6 mph 26.5 mph N/A   Clear
10:55 AM 68.4 °F - 20.7 °F 16% 29.77 in 10.0 mi NW 19.6 mph 27.6 mph N/A   Clear
11:15 AM 70.2 °F - 20.3 °F 15% 29.78 in 10.0 mi West 21.9 mph 26.5 mph N/A   Clear
11:35 AM 72.1 °F - 21.2 °F 15% 29.78 in 10.0 mi WNW 20.7 mph 26.5 mph N/A   Clear
11:55 AM 74.7 °F - 18.3 °F 12% 29.78 in 7.0 mi WNW 25.3 mph 33.4 mph N/A   Scattered Clouds
12:15 PM 75.2 °F - 18.5 °F 12% 29.78 in 7.0 mi WNW 24.2 mph 34.5 mph N/A   Scattered Clouds
12:35 PM 75.9 °F - 17.6 °F 11% 29.79 in 7.0 mi WNW 27.6 mph 34.5 mph N/A   Scattered Clouds
12:55 PM 76.1 °F - 15.8 °F 10% 29.78 in 10.0 mi NW 25.3 mph 36.8 mph N/A   Scattered Clouds
1:15 PM 77.2 °F - 18.0 °F 11% 29.78 in 10.0 mi West 23.0 mph 31.1 mph N/A   Clear
1:35 PM 77.9 °F - 18.1 °F 11% 29.77 in 10.0 mi NW 26.5 mph 33.4 mph N/A   Clear
1:55 PM 78.1 °F - 18.7 °F 11% 29.77 in 10.0 mi NW 26.5 mph 32.2 mph N/A   Clear
2:15 PM 78.4 °F - 19.4 °F 11% 29.76 in 10.0 mi NW 24.2 mph 32.2 mph N/A   Clear
2:35 PM 78.3 °F - 18.9 °F 11% 29.75 in 10.0 mi NW 23.0 mph 36.8 mph N/A   Clear
2:55 PM 79.2 °F - 18.5 °F 10% 29.75 in 10.0 mi NW 26.5 mph 38.0 mph N/A   Clear
3:15 PM 79.0 °F - 18.3 °F 10% 29.74 in 10.0 mi NW 27.6 mph 38.0 mph N/A   Clear
3:35 PM 79.7 °F - 16.5 °F 9% 29.74 in 10.0 mi NW 25.3 mph 34.5 mph N/A   Clear
3:55 PM 80.1 °F - 15.3 °F 9% 29.74 in 10.0 mi WNW 23.0 mph 34.5 mph N/A   Clear
4:15 PM 79.9 °F - 18.0 °F 10% 29.74 in 10.0 mi WNW 23.0 mph 28.8 mph N/A   Clear
4:35 PM 79.7 °F - 16.7 °F 9% 29.74 in 10.0 mi NW 18.4 mph 26.5 mph N/A   Clear
4:55 PM 79.9 °F - 16.2 °F 9% 29.73 in 10.0 mi WNW 23.0 mph 28.8 mph N/A   Clear
5:15 PM 79.7 °F - 15.6 °F 9% 29.74 in 10.0 mi NW 21.9 mph 32.2 mph N/A   Clear
5:35 PM 80.1 °F - 16.0 °F 9% 29.73 in 10.0 mi NW 23.0 mph 27.6 mph N/A   Clear
5:55 PM 79.3 °F - 15.1 °F 9% 29.74 in 10.0 mi NW 18.4 mph 25.3 mph N/A   Clear
6:15 PM 79.0 °F - 13.3 °F 8% 29.74 in 10.0 mi NNW 19.6 mph 31.1 mph N/A   Clear
6:35 PM 78.4 °F - 13.3 °F 8% 29.75 in 10.0 mi NW 20.7 mph 29.9 mph N/A   Clear
6:55 PM 77.5 °F - 13.1 °F 9% 29.76 in 10.0 mi NW 16.1 mph 28.8 mph N/A   Clear
7:15 PM 76.1 °F - 13.6 °F 9% 29.77 in 10.0 mi NW 16.1 mph 19.6 mph N/A   Clear
7:35 PM 74.5 °F - 12.6 °F 9% 29.78 in 10.0 mi NNW 13.8 mph - N/A   Clear
7:55 PM 70.5 °F - 12.7 °F 11% 29.80 in 10.0 mi NNW 9.2 mph - N/A   Clear
8:15 PM 66.2 °F - 12.0 °F 12% 29.81 in 10.0 mi NNW 8.1 mph - N/A   Clear
8:35 PM 61.7 °F - 11.3 °F 14% 29.82 in 10.0 mi NNW 6.9 mph - N/A   Clear
8:55 PM 58.5 °F - 10.4 °F 15% 29.84 in 10.0 mi North 8.1 mph - N/A   Clear
9:15 PM 66.2 °F - 9.9 °F 11% 29.85 in 10.0 mi North 9.2 mph - N/A   Clear
9:35 PM 64.9 °F - 9.5 °F 11% 29.87 in 10.0 mi North 15.0 mph 20.7 mph N/A   Clear
9:55 PM 61.2 °F - 31.6 °F 33% 29.93 in 1.2 mi NNE 29.9 mph 39.1 mph N/A   Haze
10:15 PM 57.2 °F - 31.5 °F 38% 29.96 in 1.5 mi NNE 27.6 mph 41.4 mph N/A   Haze
10:35 PM 55.4 °F - 30.7 °F 39% 29.98 in 1.5 mi NNE 26.5 mph 38.0 mph N/A   Haze
10:55 PM 52.9 °F - 30.2 °F 42% 30.00 in 1.5 mi NNE 31.1 mph 46.0 mph N/A   Haze
11:15 PM 51.1 °F - 31.1 °F 46% 30.03 in 1.8 mi NNE 23.0 mph 41.4 mph N/A   Haze
11:35 PM 48.9 °F - 30.7 °F 50% 30.05 in 1.5 mi North 27.6 mph 39.1 mph N/A   Haze
11:55 PM 46.9 °F - 31.1 °F 54% 30.07 in 1.8 mi NNE 27.6 mph 39.1 mph N/A   Haze